Location: Gwatt
(46.7204°N, 7.6223°E)
Time: 02:24:30
(UTC+00:00)

Cosmos 1603 - Pass Details

Date: 18 September 2020
Orbit: 832 x 858 km, 71.0° (Epoch: 29 October)

Event Time Altitude Azimuth Distance (km) Brightness Sun altitude
Rises 18:21:54 0° 331° (NNW) 3,420 7.5 -8.9°
Reaches altitude 10° 18:24:22 10° 330° (NNW) 2,477 6.8 -9.3°
Maximum altitude 18:30:02 73° 247° (WSW) 881 4.0 -10.2°
Drops below altitude 10° 18:35:37 10° 163° (SSE) 2,444 5.8 -11.2°
Sets 18:38:02 0° 162° (SSE) 3,371 6.5 -11.6°
